sat.trackr.live / text

‹ back to catalog

SES-20

NORAD 53960 · 2022-123A

PAYLOAD ACTIVE UNKNOWN

§ Identity

Operator
Country
SES
Launch date
2022-10-04
Launch site
AFETR
Launch vehicle
Mass (kg)
RCS (m²)

Purposes: comms

External: N2YO · Heavens-Above · Gunter

§ Orbital elements

Epoch: 2026-09-20T03:57:42.410880Z

Period
1,436.10 min
Inclination
0.0282°
Eccentricity
0.0001904
Mean motion
1.00271404 rev/d
Perigee alt
35,778.7 km
Apogee alt
35,794.7 km
Semi-major
42,164.8 km
B*
0.0000e+0
RAAN
87.5564°
Arg perigee
18.7002°
Mean anomaly
209.1442°
Rev number
1,448

§ Raw data

SES-201 53960U 22123A   26263.16507420 -.00000105  00000+0  00000+0 0  99922 53960   0.0282  87.5564 0001904  18.7002 209.1442  1.00271404 14482

JSON: /api/v1/satellites/53960 · /tle

For live sub-satellite position, see the globe view (requires WebGL).

§ Visibility from observer

Set your observer location to see the next 7 days of passes ≥ 10°. The values pass through the URL so the page stays shareable.

No JS? Fill the form by hand. The geolocation button needs JavaScript.